timestamp,surface_pressure_avg,surface_temp_avg,battery_voltage,lat,long
2017-12-08 00:00:00+00:00,260.6547,5.65,12.49,47.84626,-54.09684
2017-12-08 00:10:00+00:00,269.4564,5.66,12.49,47.84626,-54.09684
2017-12-08 00:20:00+00:00,276.5997,5.66,12.57,47.84626,-54.09684
2017-12-08 00:30:00+00:00,280.8564,5.6,12.57,47.84626,-54.09684
2017-12-08 00:40:00+00:00,287.873,5.5,12.57,47.84626,-54.09684
2017-12-08 00:50:00+00:00,298.753,5.55,12.57,47.84626,-54.09684
2017-12-08 01:00:00+00:00,306.0914,5.5,12.49,47.84626,-54.09684
2017-12-08 01:10:00+00:00,308.8947,5.5,12.49,47.84626,-54.09684
2017-12-08 01:20:00+00:00,318.0063,5.47,12.49,47.84626,-54.09684
2017-12-08 01:30:00+00:00,321.3896,5.5,12.49,47.84626,-54.09684
2017-12-08 01:40:00+00:00,325.698,5.5,12.57,47.84626,-54.09684
2017-12-08 01:50:00+00:00,330.7813,5.5,12.57,47.84626,-54.09684
2017-12-08 02:00:00+00:00,334.603,5.6,12.49,47.84626,-54.09684
2017-12-08 02:10:00+00:00,327.7663,5.5,12.49,47.84626,-54.09684
2017-12-08 02:20:00+00:00,330.2596,5.42,12.49,47.84626,-54.09684
2017-12-08 02:30:00+00:00,342.8663,5.6,12.49,47.84626,-54.09684
2017-12-08 02:40:00+00:00,339.9714,5.5,12.57,47.84626,-54.09684
2017-12-08 02:50:00+00:00,331.7681,5.4,12.57,47.84626,-54.09684
2017-12-08 03:00:00+00:00,340.803,5.4,12.49,47.84626,-54.09684
2017-12-08 03:10:00+00:00,344.6463,5.48,12.49,47.84626,-54.09684
2017-12-08 03:20:00+00:00,334.3647,5.38,12.49,47.84626,-54.09684
2017-12-08 03:30:00+00:00,333.453,5.38,12.49,47.84626,-54.09684
2017-12-08 03:40:00+00:00,338.6613,5.4,12.49,47.84626,-54.09684
2017-12-08 03:50:00+00:00,336.228,5.4,12.57,47.84626,-54.09684
2017-12-08 04:00:00+00:00,327.783,5.41,12.49,47.84626,-54.09684
2017-12-08 04:10:00+00:00,333.5829,5.5,12.41,47.84626,-54.09684
2017-12-08 04:20:00+00:00,331.6896,5.5,12.49,47.84626,-54.09684
2017-12-08 04:30:00+00:00,323.1647,5.5,12.49,47.84626,-54.09684
2017-12-08 04:40:00+00:00,321.1714,5.5,12.49,47.84626,-54.09684
2017-12-08 04:50:00+00:00,326.0764,5.5,12.49,47.84626,-54.09684
2017-12-08 05:00:00+00:00,315.9997,5.5,12.49,47.84626,-54.09684
2017-12-08 05:10:00+00:00,305.0347,5.3,12.41,47.84626,-54.09684
2017-12-08 05:20:00+00:00,301.5098,5.1,12.49,47.84626,-54.09684
2017-12-08 05:30:00+00:00,293.218,4.99,12.49,47.84626,-54.09684
2017-12-08 05:40:00+00:00,280.473,4.97,12.49,47.84626,-54.09684
2017-12-08 05:50:00+00:00,276.3064,5.0,12.49,47.84626,-54.09684
2017-12-08 06:00:00+00:00,267.9064,5.0,12.49,47.84626,-54.09684
2017-12-08 06:10:00+00:00,250.4814,5.05,12.41,47.84626,-54.09684
2017-12-08 06:20:00+00:00,245.7531,5.07,12.49,47.84626,-54.09684
2017-12-08 06:30:00+00:00,245.3247,5.15,12.49,47.84626,-54.09684
2017-12-08 06:40:00+00:00,233.9481,5.06,12.49,47.84626,-54.09684
2017-12-08 06:50:00+00:00,219.5181,5.0,12.49,47.84626,-54.09684
2017-12-08 07:00:00+00:00,219.3148,5.0,12.41,47.84626,-54.09684
2017-12-08 07:10:00+00:00,216.2015,5.0,12.41,47.84626,-54.09684
2017-12-08 07:20:00+00:00,202.1931,5.0,12.49,47.84626,-54.09684
2017-12-08 07:30:00+00:00,196.1831,5.0,12.49,47.84626,-54.09684
2017-12-08 07:40:00+00:00,202.5815,5.0,12.49,47.84626,-54.09684
2017-12-08 07:50:00+00:00,200.6248,5.0,12.49,47.84626,-54.09684
2017-12-08 08:00:00+00:00,197.7781,5.0,12.41,47.84626,-54.09684
2017-12-08 08:10:00+00:00,199.9281,5.0,12.41,47.84626,-54.09684
2017-12-08 08:20:00+00:00,199.5998,5.0,12.49,47.84626,-54.09684
2017-12-08 08:30:00+00:00,199.5331,5.0,12.49,47.84626,-54.09684
2017-12-08 08:40:00+00:00,206.6564,5.0,12.49,47.84626,-54.09684
2017-12-08 08:50:00+00:00,213.2414,5.25,12.49,47.84626,-54.09684
2017-12-08 09:00:00+00:00,208.7614,5.2,12.41,47.84626,-54.09684
2017-12-08 09:10:00+00:00,206.5448,5.1,12.41,47.84626,-54.09684
2017-12-08 09:20:00+00:00,215.2947,5.07,12.49,47.84626,-54.09684
2017-12-08 09:30:00+00:00,222.0414,5.11,12.49,47.84626,-54.09684
2017-12-08 09:40:00+00:00,220.8348,5.36,12.49,47.84626,-54.09684
2017-12-08 09:50:00+00:00,224.2181,5.4,12.49,47.84626,-54.09684
2017-12-08 10:00:00+00:00,230.5464,5.45,12.41,47.84626,-54.09684
2017-12-08 10:10:00+00:00,235.8164,5.56,12.41,47.84626,-54.09684
2017-12-08 10:20:00+00:00,237.9231,5.6,12.49,47.84626,-54.09684
2017-12-08 10:30:00+00:00,241.2731,5.6,12.49,47.84626,-54.09684
2017-12-08 10:40:00+00:00,244.6597,5.6,12.49,47.84626,-54.09684
2017-12-08 10:50:00+00:00,244.5997,5.6,12.49,47.84626,-54.09684
2017-12-08 11:00:00+00:00,250.6881,5.6,12.41,47.84626,-54.09684
2017-12-08 11:10:00+00:00,259.7931,5.6,12.41,47.84626,-54.09684
2017-12-08 11:20:00+00:00,264.3765,5.6,12.49,47.84626,-54.09684
2017-12-08 11:30:00+00:00,265.2198,5.6,12.49,47.84626,-54.09684
2017-12-08 11:40:00+00:00,275.358,5.6,12.49,47.84626,-54.09684
2017-12-08 11:50:00+00:00,285.7164,5.6,12.49,47.84626,-54.09684
2017-12-08 12:00:00+00:00,289.6297,5.66,12.41,47.84626,-54.09684
2017-12-08 12:10:00+00:00,288.5247,5.7,12.41,47.84626,-54.09684
2017-12-08 12:20:00+00:00,296.233,5.7,12.49,47.84626,-54.09684
2017-12-08 12:30:00+00:00,302.4031,5.7,12.49,47.84626,-54.09684
2017-12-08 12:40:00+00:00,305.193,5.7,12.49,47.84626,-54.09684
2017-12-08 12:50:00+00:00,314.5947,5.7,12.49,47.84626,-54.09684
2017-12-08 13:00:00+00:00,327.598,5.7,12.49,47.84626,-54.09684
2017-12-08 13:10:00+00:00,333.083,5.7,12.41,47.84626,-54.09684
2017-12-08 13:20:00+00:00,335.8097,5.7,12.49,47.84626,-54.09684
2017-12-08 13:30:00+00:00,346.693,5.7,12.49,47.84626,-54.09684
2017-12-08 13:40:00+00:00,359.9596,5.7,12.57,47.84626,-54.09684
2017-12-08 13:50:00+00:00,362.9029,5.7,12.57,47.84626,-54.09684
2017-12-08 14:00:00+00:00,368.3479,5.7,12.49,47.84626,-54.09684
2017-12-08 14:10:00+00:00,380.2546,5.7,12.49,47.84626,-54.09684
2017-12-08 14:20:00+00:00,383.0764,5.72,12.57,47.84626,-54.09684
2017-12-08 14:30:00+00:00,382.0362,5.74,12.57,47.84626,-54.09684
2017-12-08 14:40:00+00:00,390.6945,5.74,12.65,47.84626,-54.09684
2017-12-08 14:50:00+00:00,399.1212,5.77,12.97,47.84626,-54.09684
2017-12-08 15:00:00+00:00,393.7946,5.75,13.13,47.84626,-54.09684
2017-12-08 15:10:00+00:00,394.3146,5.76,13.05,47.84626,-54.09684
2017-12-08 15:20:00+00:00,401.6346,5.77,12.97,47.84626,-54.09684
2017-12-08 15:30:00+00:00,397.4446,5.76,13.37,47.84626,-54.09684
2017-12-08 15:40:00+00:00,392.3896,5.78,13.21,47.84626,-54.09684
2017-12-08 15:50:00+00:00,399.5945,5.78,12.97,47.84626,-54.09684
2017-12-08 16:00:00+00:00,402.2029,5.79,12.89,47.84626,-54.09684
2017-12-08 16:10:00+00:00,392.2079,5.76,12.81,47.84626,-54.09684
2017-12-08 16:20:00+00:00,387.2946,5.79,13.37,47.84626,-54.09684
2017-12-08 16:30:00+00:00,391.8863,5.79,13.05,47.84626,-54.09684
2017-12-08 16:40:00+00:00,388.4362,5.8,13.05,47.84626,-54.09684
2017-12-08 16:50:00+00:00,377.9829,5.8,13.05,47.84626,-54.09684
2017-12-08 17:00:00+00:00,370.6595,5.8,12.97,47.84626,-54.09684
2017-12-08 17:10:00+00:00,372.173,5.8,12.89,47.84626,-54.09684
2017-12-08 17:20:00+00:00,364.3296,5.8,12.97,47.84626,-54.09684
2017-12-08 17:30:00+00:00,351.4097,5.8,13.21,47.84626,-54.09684
2017-12-08 17:40:00+00:00,339.0197,5.8,13.21,47.84626,-54.09684
2017-12-08 17:50:00+00:00,334.4213,5.8,13.21,47.84626,-54.09684
2017-12-08 18:00:00+00:00,325.9913,5.8,13.13,47.84626,-54.09684
2017-12-08 18:10:00+00:00,310.6846,5.8,13.05,47.84626,-54.09684
2017-12-08 18:20:00+00:00,294.0297,5.8,13.05,47.84626,-54.09684
2017-12-08 18:30:00+00:00,286.663,5.8,13.05,47.84626,-54.09684
2017-12-08 18:40:00+00:00,278.798,5.8,12.97,47.84626,-54.09684
2017-12-08 18:50:00+00:00,263.8247,5.8,12.97,47.84626,-54.09684
2017-12-08 19:00:00+00:00,249.1681,5.8,12.89,47.84626,-54.09684
2017-12-08 19:10:00+00:00,244.1965,5.8,12.81,47.84626,-54.09684
2017-12-08 19:20:00+00:00,234.0198,5.8,12.89,47.84626,-54.09684
2017-12-08 19:30:00+00:00,219.5448,5.8,12.81,47.84626,-54.09684
2017-12-08 19:40:00+00:00,216.3998,5.8,12.81,47.84626,-54.09684
2017-12-08 19:50:00+00:00,215.8698,5.8,12.81,47.84626,-54.09684
2017-12-08 20:00:00+00:00,208.9364,5.8,12.81,47.84626,-54.09684
2017-12-08 20:10:00+00:00,206.5748,5.8,12.73,47.84626,-54.09684
2017-12-08 20:20:00+00:00,211.0031,5.8,12.81,47.84626,-54.09684
2017-12-08 20:30:00+00:00,205.3981,5.8,12.81,47.84626,-54.09684
2017-12-08 20:40:00+00:00,196.8048,5.8,12.81,47.84626,-54.09684
2017-12-08 20:50:00+00:00,199.6948,5.8,12.81,47.84626,-54.09684
2017-12-08 21:00:00+00:00,202.8631,5.8,12.73,47.84626,-54.09684
2017-12-08 21:10:00+00:00,202.9898,5.8,12.73,47.84626,-54.09684
2017-12-08 21:20:00+00:00,205.5498,5.8,12.73,47.84626,-54.09684
2017-12-08 21:30:00+00:00,210.9564,5.8,12.73,47.84626,-54.09684
2017-12-08 21:40:00+00:00,209.6931,5.8,12.73,47.84626,-54.09684
2017-12-08 21:50:00+00:00,208.4064,5.75,12.73,47.84626,-54.09684
2017-12-08 22:00:00+00:00,216.0581,5.7,12.73,47.84626,-54.09684
2017-12-08 22:10:00+00:00,220.5781,5.7,12.65,47.84626,-54.09684
2017-12-08 22:20:00+00:00,216.4564,5.6,12.73,47.84626,-54.09684
2017-12-08 22:30:00+00:00,213.7131,5.6,12.73,47.84626,-54.09684
2017-12-08 22:40:00+00:00,217.0964,5.58,12.73,47.84626,-54.09684
2017-12-08 22:50:00+00:00,218.8881,5.56,12.73,47.84626,-54.09684
2017-12-08 23:00:00+00:00,221.7331,5.52,12.65,47.84626,-54.09684
2017-12-08 23:10:00+00:00,222.8831,5.52,12.65,47.84626,-54.09684
2017-12-08 23:20:00+00:00,217.0698,5.5,12.73,47.84626,-54.09684
2017-12-08 23:30:00+00:00,218.4514,5.5,12.65,47.84626,-54.09684
2017-12-08 23:40:00+00:00,228.7614,5.5,12.73,47.84626,-54.09684
2017-12-08 23:50:00+00:00,236.1165,5.5,12.73,47.84626,-54.09684
